Wind_Speed
4 3 3 2 1 1 2 2 1 1 2 3 5 7 8 9 9 9 9 7 7 11 13 13 8 5 4 1 2 4 8 8 10 19 15 11 16 18 18 17 14 13 13 13 13 12 10 10 11 15 11 3 3 1 2 3 2 4 3 2 2 3 4 5 6 6 3 4 5 4 4 7 6 3 1 2 2 6 5 5 5 6 8 10 11 7 5 5
3 2 2 2 2 3 3 2 1 0 2 4 6 7 8 8 8 8 7 6 7 10 12 12 9 5 3 1 4 6 8 7 8 14 14 14 18 18 17 15 12 11 11 11 12 11 8 7 9 10 7 2 3 2 2 2 2 3 3 1 4 5 5 5 6 5 3 4 5 5 4 7 7 2 1 3 5 4 6 8 4 8 12 13 17 11 4 11
3 3 3 4 5 4 3 2 1 1 3 5 7 7 6 7 8 8 6 5 7 9 11 11 9 6 4 4 7 8 7 5 5 8 13 17 18 18 16 13 11 10 10 9 9 9 6 5 5 5 4 2 2 2 2 2 1 2 3 1 6 6 4 5 5 6 5 3 4 6 3 4 6 2 1 3 7 6 7 10 6 9 14 13 15 11 9 14
5 5 5 6 6 4 3 2 1 2 4 5 5 5 5 7 9 9 6 5 6 9 10 10 9 8 6 6 9 10 6 5 3 7 13 17 18 17 14 11 9 8 9 9 9 9 6 3 2 4 4 2 4 3 1 2 1 1 3 4 6 3 3 5 6 6 4 2 3 4 3 4 5 2 2 2 5 8 10 11 11 13 15 14 11 8 11 13
6 6 7 6 5 4 3 2 1 3 4 4 3 3 5 7 9 9 7 5 6 8 8 9 8 9 8 6 9 10 5 5 4 8 14 17 18 16 12 10 8 8 9 9 9 6 4 3 5 5 4 1 4 3 0 2 1 1 3 5 5 3 2 6 4 4 2 1 2 3 3 5 3 1 4 4 5 10 10 9 12 14 14 13 10 7 8 9
7 6 6 6 5 4 2 1 2 3 3 2 2 3 5 8 9 9 7 5 5 6 7 8 8 9 9 7 8 8 5 2 6 9 15 17 17 16 12 9 8 8 9 8 7 4 3 4 5 4 3 1 1 0 2 3 2 1 4 3 3 3 3 5 1 2 1 0 3 2 4 3 2 5 4 7 12 16 15 6 7 11 12 12 9 6 8 10
6 6 6 5 4 3 1 2 3 3 2 1 3 4 7 9 9 8 6 4 4 5 7 8 8 10 10 7 5 5 6 1 6 10 14 16 14 15 13 9 9 10 8 6 6 4 4 6 4 3 3 2 1 1 1 4 3 1 4 5 3 3 5 4 2 2 2 3 6 3 4 4 4 6 2 5 15 18 17 9 5 9 9 8 7 7 10 12
6 5 5 4 3 2 2 3 3 2 1 2 4 6 9 10 7 5 4 3 3 4 7 6 7 11 10 3 1 4 4 3 7 11 14 15 12 13 14 11 12 10 4 5 6 2 2 4 1 2 2 2 2 1 3 5 4 2 3 4 3 3 5 6 5 5 4 5 5 3 6 8 7 3 3 12 19 15 12 10 9 9 8 7 8 10 10 11
6 5 4 3 2 2 3 2 1 1 1 3 5 8 9 8 5 3 2 2 2 4 6 6 8 11 8 1 5 4 3 5 9 13 15 16 13 10 12 14 16 12 5 6 8 4 2 1 1 1 1 0 1 1 3 4 3 2 3 4 4 5 6 6 5 5 4 3 2 3 8 9 6 2 5 16 17 10 7 7 8 6 8 9 9 10 10 11
5 5 4 2 2 3 2 1 1 1 2 4 6 9 7 5 5 4 3 2 3 4 5 6 8 10 7 3 6 5 4 7 10 13 15 17 15 11 11 15 16 15 8 7 9 6 2 1 2 3 4 2 1 0 1 1 0 2 3 4 5 7 6 4 5 5 4 4 3 4 10 9 4 1 5 12 6 6 9 9 9 5 8 10 9 9 9 10
5 4 2 2 2 2 1 1 1 1 3 4 7 8 4 3 4 4 3 3 3 4 5 6 7 7 7 7 7 4 5 8 11 13 16 17 16 13 11 12 13 13 9 7 9 8 4 1 2 3 2 0 0 1 1 1 0 1 3 6 7 7 4 3 6 6 3 3 3 4 10 8 1 1 9 12 5 7 9 11 11 8 8 9 9 9 7 8
4 2 1 1 1 1 1 1 2 2 3 5 7 6 4 3 4 3 1 2 3 4 5 6 7 4 4 8 5 2 6 9 12 13 16 19 18 12 8 9 10 10 7 7 8 9 8 1 4 5 0 1 1 1 0 1 1 1 4 5 8 9 4 3 7 6 2 2 1 1 8 8 1 6 12 11 8 9 10 11 12 10 9 9 8 8 6 7
2 1 1 1 1 1 1 2 3 2 4 6 5 4 4 4 3 2 1 2 2 5 6 5 8 5 3 4 1 3 7 9 12 13 18 24 19 7 4 8 9 8 6 6 6 7 8 3 7 6 2 3 1 1 2 3 2 2 4 3 5 8 4 3 6 6 4 2 3 3 4 9 6 9 9 6 7 9 12 12 11 10 9 8 7 6 6 7
2 1 0 0 1 1 2 2 2 3 5 5 4 4 5 4 3 2 1 2 2 6 6 4 8 5 3 1 2 7 11 10 14 15 19 26 20 8 6 8 7 6 5 5 4 6 6 4 8 6 2 4 1 1 4 6 4 2 3 3 3 5 5 7 6 6 6 3 4 5 2 8 12 14 8 4 7 9 11 12 10 10 8 8 7 6 7 6
2 1 0 0 1 2 2 2 2 3 4 3 3 4 5 4 3 2 0 1 2 7 6 3 5 3 3 1 2 10 15 12 15 16 18 24 18 9 10 10 5 5 6 3 2 5 7 5 7 5 2 3 4 4 4 5 4 4 4 3 4 2 5 10 6 4 5 4 5 4 4 7 10 14 12 10 11 9 8 9 9 8 7 7 6 6 6 6
3 1 0 1 2 2 2 2 2 3 3 2 4 5 6 6 4 2 1 2 2 5 6 3 4 4 4 2 5 10 12 11 15 17 19 21 12 7 13 10 4 6 6 4 2 3 8 8 5 3 3 5 6 5 4 5 5 4 4 3 5 3 5 8 4 5 5 4 6 4 3 6 8 13 15 13 12 9 6 7 7 8 7 7 7 7 7 7
2 0 1 1 2 2 2 2 3 3 3 2 3 6 10 13 10 2 4 3 3 4 5 6 6 3 4 3 6 7 10 12 15 20 24 18 8 9 13 7 5 8 6 8 7 3 6 7 2 1 4 5 3 3 5 5 5 4 4 2 4 3 4 5 5 7 8 4 5 3 3 8 11 12 15 12 9 7 6 6 7 7 7 7 6 7 8 8
1 1 1 2 3 2 1 2 2 3 3 2 3 3 5 10 14 11 4 2 4 4 5 8 9 3 2 6 5 9 15 14 15 22 26 18 8 11 13 6 5 8 6 6 9 6 5 4 2 2 4 5 5 6 5 2 3 4 4 3 4 4 3 5 5 5 9 8 6 5 3 10 12 11 11 10 7 6 6 6 6 6 7 7 6 7 7 8
1 1 2 2 2 1 0 1 2 4 3 3 1 2 3 3 9 17 19 12 3 2 2 5 6 4 2 7 7 14 15 10 14 23 28 21 9 8 11 8 5 6 6 3 6 6 3 4 5 4 5 6 5 3 1 3 4 5 5 2 5 6 5 7 6 3 6 8 7 4 5 9 12 11 9 9 7 6 6 6 6 6 6 6 6 6 6 8
1 2 1 2 1 2 3 3 3 4 2 2 2 2 2 3 4 7 13 13 5 3 2 2 0 2 2 5 10 17 12 6 11 21 30 24 9 5 8 8 6 7 6 1 2 4 3 6 5 2 5 7 6 3 4 4 2 3 3 3 5 5 6 8 6 5 5 6 5 4 6 9 9 10 8 8 7 6 6 7 7 6 6 5 6 6 6 6
0 1 1 1 2 5 5 5 5 5 3 2 2 3 1 2 4 1 2 4 1 1 3 2 2 1 3 4 10 14 6 4 7 18 31 23 6 5 7 6 7 7 4 2 2 4 5 7 4 6 7 7 5 3 4 3 0 0 2 4 5 3 6 9 4 4 6 4 5 5 9 11 8 8 8 7 6 5 5 5 6 6 6 5 4 6 6 5
1 2 2 2 5 6 6 6 6 5 5 6 8 7 4 3 3 3 3 3 2 2 3 2 2 3 4 2 9 10 3 6 10 16 30 23 8 5 4 5 8 3 5 3 2 6 6 5 6 7 5 4 2 4 3 2 1 1 1 2 4 3 5 9 4 3 6 2 5 6 8 11 9 7 9 6 4 5 5 3 5 5 5 6 5 5 6 6
1 2 2 3 7 7 5 6 6 6 8 10 10 8 5 3 3 3 3 4 2 3 4 5 5 5 6 3 11 12 5 7 6 12 24 19 7 4 3 5 6 3 6 6 5 4 4 3 5 3 3 4 3 5 7 4 3 1 1 2 5 4 3 5 4 8 9 1 3 6 5 8 7 6 7 6 4 5 6 5 6 5 5 6 6 5 5 6
1 2 3 5 8 7 4 4 4 6 7 8 9 8 6 3 2 3 3 3 2 2 2 1 2 2 3 4 12 10 3 4 1 9 20 13 4 3 4 3 5 5 5 4 7 7 2 4 3 4 6 5 3 6 7 6 5 3 1 1 5 6 2 4 6 10 9 2 2 6 5 4 4 6 7 5 4 5 5 6 6 5 4 5 5 5 5 5
2 2 4 6 8 7 4 2 3 5 5 5 7 6 5 4 2 2 3 4 3 3 2 1 1 4 4 6 13 6 2 3 1 6 14 11 4 3 3 1 4 5 3 1 6 5 0 4 2 4 6 6 5 4 4 3 5 5 3 3 4 6 5 5 7 7 6 4 4 6 5 5 4 5 7 5 6 7 6 5 6 6 6 5 6 6 6 6
0 2 5 7 8 7 4 2 1 2 2 2 3 2 2 3 4 3 3 5 4 3 5 4 2 7 8 7 11 3 3 5 2 7 15 12 4 2 3 3 2 4 2 2 3 2 2 4 3 3 3 6 6 3 1 2 5 5 3 3 2 4 6 5 5 3 3 4 5 5 4 5 6 6 7 5 7 10 8 7 7 6 6 5 5 5 6 7
1 3 5 6 7 5 2 1 1 1 1 1 2 2 2 1 3 3 2 5 4 2 4 5 3 8 8 8 9 3 3 7 4 9 15 13 7 2 5 4 2 3 1 2 3 0 2 6 6 5 4 6 6 4 2 3 4 4 2 1 5 7 5 3 1 1 1 3 5 4 3 2 5 6 6 5 7 9 8 8 8 6 6 5 5 5 6 6
3 4 6 5 6 5 1 1 1 0 0 2 2 3 4 2 2 2 5 5 3 2 1 3 4 7 7 9 10 6 1 6 3 6 13 13 9 3 4 2 3 1 2 5 2 3 1 4 5 4 5 5 3 4 3 3 1 6 5 4 6 5 3 3 4 2 1 2 4 5 2 1 5 7 5 5 4 7 8 8 9 8 7 6 6 6 7 8
4 6 6 5 5 4 1 2 3 2 2 2 2 2 4 2 1 3 6 3 2 2 1 2 5 6 8 9 9 6 3 4 3 6 12 12 11 6 4 1 5 3 3 6 4 4 1 1 1 2 4 3 4 6 3 5 2 7 5 5 2 2 2 3 4 2 2 4 2 5 3 3 5 7 6 5 4 6 8 8 8 8 8 7 7 8 10 13
6 7 6 4 5 3 1 3 5 4 3 3 5 5 5 3 4 6 5 1 1 3 1 3 4 4 8 8 6 6 5 3 2 6 7 5 10 9 4 0 5 5 4 5 3 2 2 1 2 3 0 2 4 6 2 5 4 6 6 5 4 4 3 3 2 3 4 3 5 5 1 3 3 7 4 2 4 6 7 9 10 11 12 12 11 11 15 16
6 7 7 5 3 1 1 3 5 4 4 5 5 4 3 3 5 7 3 1 1 4 4 5 4 4 8 6 4 6 5 5 6 6 6 4 8 9 5 4 5 5 6 6 5 5 4 2 0 1 2 0 3 6 2 1 3 4 5 5 5 5 4 4 4 4 4 5 6 4 1 1 2 6 5 4 6 10 10 10 13 15 16 16 14 14 15 14
7 8 7 4 1 1 1 2 2 3 4 4 3 4 4 4 5 3 1 4 3 3 3 3 4 5 5 3 3 6 4 5 5 5 4 3 6 7 6 5 3 5 6 5 6 7 3 1 2 4 2 1 3 5 5 4 5 6 5 6 6 5 5 5 5 4 2 6 4 2 2 2 4 8 6 7 11 15 13 10 11 13 14 15 14 13 11 10
10 8 6 4 3 2 2 2 1 3 1 1 3 5 7 6 3 1 3 3 2 3 1 1 4 4 4 3 5 5 2 3 5 4 2 2 5 4 5 5 4 3 3 3 4 6 4 4 5 5 3 1 3 5 6 5 5 7 3 4 4 3 5 5 5 4 4 7 3 1 1 2 5 4 4 8 11 13 13 12 12 13 14 13 11 11 10 11
13 9 8 8 7 5 4 1 1 0 1 2 4 6 8 6 1 1 3 3 1 3 1 1 4 5 3 3 3 4 2 2 4 5 4 4 5 4 5 7 7 4 2 3 3 3 5 5 4 3 2 2 4 3 1 1 2 3 2 3 2 2 0 4 4 3 6 8 5 3 1 2 4 4 7 7 10 12 12 12 12 13 13 11 11 12 12 12
15 13 12 13 12 11 6 1 2 1 2 5 7 7 7 3 2 0 1 4 2 3 3 1 3 4 4 3 3 3 1 2 3 5 5 5 4 3 4 5 6 4 3 3 2 1 3 5 7 3 2 1 2 1 1 2 2 3 2 3 2 1 3 2 4 5 3 5 5 3 2 5 4 3 8 8 10 13 11 10 13 14 13 12 12 13 12 11
15 15 17 19 19 16 9 2 3 4 5 7 8 6 3 3 2 2 2 2 1 2 4 4 4 5 4 5 4 5 3 2 4 5 4 3 2 2 2 1 3 4 3 3 1 1 2 6 7 5 3 1 2 2 1 2 1 1 1 1 2 3 5 2 4 2 2 2 4 2 3 5 3 4 9 14 14 15 13 12 13 12 12 12 11 11 11 11
11 12 15 22 23 16 8 4 3 7 6 8 8 4 1 3 2 3 2 1 0 0 3 3 3 3 3 3 4 7 6 3 4 5 3 2 2 2 3 1 1 2 1 2 1 1 1 5 7 4 3 4 2 2 2 2 1 2 2 3 2 1 4 3 2 3 3 3 4 3 7 7 4 3 9 16 17 16 15 14 13 13 13 13 12 12 12 13
4 5 10 22 24 13 7 7 9 10 8 8 8 3 2 1 1 2 2 1 1 2 5 3 1 2 1 2 4 7 6 5 5 4 2 3 2 1 2 2 1 2 2 1 0 0 2 3 7 1 3 8 2 3 4 4 2 2 1 2 2 1 2 2 1 3 4 5 5 5 8 6 1 3 7 12 13 13 14 14 14 15 15 13 14 15 15 16
3 2 5 18 19 10 8 6 7 9 9 6 4 2 1 0 0 1 1 1 1 3 5 2 2 3 2 1 2 5 4 3 3 4 2 2 3 2 4 1 2 2 2 0 2 1 1 1 5 4 4 7 4 4 4 5 5 4 2 2 2 2 4 2 1 2 2 5 5 5 6 3 1 1 5 7 9 11 12 13 14 15 15 14 14 15 16 17
3 3 2 17 16 6 11 17 12 9 8 5 3 2 1 0 1 2 2 2 1 2 3 1 2 3 2 2 1 1 2 1 1 2 1 1 2 1 2 1 2 4 4 2 3 1 1 1 3 6 6 5 4 2 1 2 3 3 3 4 4 2 1 2 2 1 1 5 5 4 5 3 2 0 3 6 8 10 12 13 13 14 16 16 15 14 14 15
4 4 3 19 16 1 6 18 13 5 5 4 1 2 2 1 1 4 4 3 2 1 1 3 3 1 0 1 1 1 1 2 0 0 1 1 1 2 1 2 1 3 3 3 3 2 1 1 2 5 5 4 5 5 3 4 4 2 1 2 3 3 2 3 5 2 1 3 4 5 8 5 2 2 1 4 8 10 13 15 14 14 16 16 14 13 13 14
6 4 6 18 12 7 10 10 4 3 5 3 2 2 2 2 2 3 3 3 2 1 2 3 2 1 2 1 1 2 1 2 1 1 1 2 2 2 2 1 2 0 1 2 2 1 0 2 0 4 4 6 10 5 1 2 3 4 2 1 1 0 2 1 6 5 3 4 2 3 6 5 3 4 2 3 8 11 12 14 13 14 14 14 14 14 14 15
4 3 7 16 5 8 13 8 3 6 4 0 1 1 2 2 2 2 2 3 2 1 2 2 0 0 1 1 1 1 1 1 2 1 1 3 3 1 0 1 1 1 2 1 2 2 1 3 2 5 4 6 9 5 2 1 2 1 2 2 2 3 4 4 6 2 4 7 4 3 6 4 3 5 2 6 14 16 16 17 17 16 15 15 16 16 16 18
3 3 7 18 8 4 6 5 2 4 2 0 3 3 4 2 2 3 2 2 2 1 2 1 1 1 0 1 1 0 2 1 2 2 0 2 2 0 1 1 1 1 2 1 1 2 2 1 2 4 6 8 8 7 5 3 2 2 2 4 6 7 8 5 4 3 1 6 6 5 8 6 2 3 6 16 22 22 21 21 21 20 18 17 16 15 16 18
4 1 4 17 21 12 5 4 6 5 3 3 5 4 4 2 1 1 1 1 1 2 1 1 1 1 1 1 2 2 2 1 1 2 2 1 3 1 2 2 2 2 2 2 2 1 1 1 2 3 4 7 7 7 8 6 6 5 3 7 8 9 10 6 4 3 2 6 9 7 9 9 8 8 13 19 20 19 20 21 21 20 18 16 15 14 16 17
4 4 2 9 15 11 4 1 4 6 4 4 4 3 3 3 1 2 2 1 1 1 2 2 1 2 2 3 4 3 2 1 1 2 2 3 4 2 2 2 2 2 1 3 3 2 2 1 2 5 4 5 6 9 9 5 7 9 8 9 8 7 8 5 3 3 5 7 7 8 12 14 12 10 13 16 17 19 20 20 19 18 17 16 15 15 17 17
3 3 1 1 4 5 5 5 5 4 3 4 3 1 2 2 3 2 1 1 0 1 2 2 3 3 2 4 4 3 4 3 2 2 1 3 4 3 2 1 2 3 2 1 1 3 4 2 3 5 7 9 8 11 13 9 6 6 8 9 8 8 8 8 6 5 9 7 6 11 18 18 13 11 14 17 18 19 19 18 17 17 16 16 15 17 19 17
3 3 2 1 2 2 3 3 4 6 5 4 3 2 2 3 3 2 2 2 2 1 1 2 4 3 1 1 2 2 6 6 4 3 1 2 4 4 4 2 1 3 2 1 2 3 4 2 3 3 6 10 10 12 13 8 2 4 7 8 9 9 8 9 7 8 9 8 11 18 22 20 13 11 15 19 18 18 18 16 16 16 16 15 16 18 19 16
4 4 0 2 4 3 1 2 3 7 7 5 4 3 3 3 3 1 2 2 4 3 2 2 5 5 2 2 2 1 2 2 4 5 1 2 4 3 4 2 1 2 2 2 3 2 3 2 3 2 5 11 11 10 7 3 1 5 7 7 7 7 7 8 8 10 12 13 16 21 24 19 11 11 17 19 17 16 15 15 16 17 17 17 18 19 18 15
3 4 1 4 5 2 2 3 3 5 5 4 3 2 2 2 1 1 1 1 1 4 4 2 5 6 2 3 3 1 4 5 4 6 2 2 4 1 1 2 2 4 4 3 2 2 2 3 1 3 5 11 9 5 3 1 4 5 7 9 10 11 12 11 11 12 13 15 18 20 20 14 8 11 17 18 16 16 17 18 18 17 18 20 21 20 17 14
6 5 6 7 4 4 3 3 3 5 3 3 2 1 0 1 2 1 1 2 2 1 1 1 5 5 2 1 3 6 7 7 8 9 6 3 3 3 2 1 1 4 6 3 2 3 3 3 2 5 5 10 9 9 12 5 7 7 9 12 13 13 13 12 11 12 13 17 20 16 11 9 10 13 16 17 18 20 20 20 18 16 18 22 21 19 16 15
8 6 5 7 4 3 3 3 3 4 2 2 1 2 1 1 2 1 1 1 2 3 4 4 2 2 2 4 4 5 5 6 6 5 3 2 2 1 2 2 2 1 2 1 1 2 2 1 3 4 3 9 11 13 13 6 2 2 4 8 11 13 14 15 13 12 15 15 14 10 7 11 15 17 18 19 20 22 21 18 17 17 20 22 19 17 16 18
Wind_Direction
276 273 272 271 258 167 159 159 173 317 350 344 344 341 339 340 341 342 342 345 350 359 7 18 46 101 131 175 331 337 348 2 24 33 40 13 356 356 351 342 337 340 345 344 350 359 360 4 1 360 6 31 24 342 21 25 61 53 85 116 258 207 205 197 193 203 198 273 278 279 202 193 259 265 252 341 202 244 264 259 258 264 261 247 248 281 334 178
257 239 229 200 160 149 154 155 166 309 345 339 343 340 342 348 345 341 338 343 350 2 13 23 46 85 107 2 335 341 347 360 25 30 24 4 360 357 345 340 338 338 345 344 353 11 15 348 341 3 21 22 352 359 30 4 48 90 120 173 240 206 217 204 193 211 209 266 276 281 241 200 230 232 66 275 263 282 275 264 256 264 266 260 255 252 230 175
200 183 172 155 149 148 157 164 170 312 342 340 342 342 350 0 359 355 347 342 352 6 17 25 38 51 39 7 354 347 343 5 21 7 4 3 360 354 345 339 338 339 346 345 346 357 356 320 324 16 39 15 345 10 39 8 352 147 135 251 246 217 242 242 212 220 226 261 297 292 275 213 238 248 91 246 282 293 253 251 233 245 253 250 248 232 198 180
170 164 157 148 150 156 167 169 187 329 340 340 343 352 4 6 6 6 358 349 359 11 21 28 30 22 9 2 360 347 348 38 12 329 355 3 359 355 344 337 342 346 350 350 345 342 337 336 19 53 57 3 336 15 61 335 337 153 153 206 235 199 264 263 218 230 247 219 254 286 323 278 255 219 224 246 301 283 248 241 227 232 243 243 244 218 193 185
161 157 152 152 158 165 169 176 314 334 339 342 353 360 2 0 0 3 5 357 359 15 25 27 20 8 356 343 348 346 15 56 324 330 358 2 1 356 346 343 347 345 353 353 345 346 350 30 60 54 51 356 338 18 219 290 73 186 220 209 212 159 263 271 228 250 265 150 263 300 299 271 268 210 223 211 242 259 252 232 219 230 240 243 241 211 194 192
158 157 157 160 163 168 179 252 326 338 338 347 356 349 352 350 350 357 5 359 0 16 18 17 12 359 344 327 335 353 61 96 309 344 0 3 5 359 355 354 352 349 348 346 345 3 20 27 47 60 48 24 326 43 240 314 42 264 280 292 250 189 247 280 275 258 193 116 272 243 255 269 318 288 234 207 228 246 256 237 203 233 242 249 249 200 194 205
160 160 159 161 165 182 223 314 328 333 330 340 341 343 343 339 342 352 359 357 1 6 6 13 9 352 337 321 329 20 76 121 320 355 359 6 10 4 8 4 354 346 335 350 4 25 54 34 37 123 77 10 259 210 302 325 19 162 273 316 306 217 229 262 286 268 174 228 245 230 289 280 254 278 321 245 244 249 261 271 248 250 257 265 259 219 213 213
159 157 159 164 182 210 298 322 325 324 309 334 342 343 341 338 339 347 357 2 358 355 3 10 357 349 344 330 98 42 40 317 339 1 358 4 10 7 12 12 6 353 348 28 18 16 73 43 34 150 59 342 204 107 351 339 10 131 242 296 311 252 253 278 292 284 269 245 254 277 276 260 233 245 317 266 261 264 271 280 271 266 274 264 246 237 230 223
154 159 166 176 208 278 318 322 318 262 298 332 343 345 349 357 6 21 27 21 360 352 359 6 358 355 352 36 98 58 333 319 350 359 357 358 0 0 1 11 14 8 26 36 18 29 63 38 210 150 101 266 156 67 342 348 337 213 237 288 300 300 300 316 303 281 286 269 274 279 269 268 255 254 278 261 263 289 316 302 288 285 279 264 246 240 231 230
159 169 177 206 262 311 320 311 290 256 318 335 341 347 357 19 38 54 57 56 23 7 6 9 7 11 14 39 76 61 322 338 354 354 354 351 352 351 354 8 12 10 25 36 28 39 52 192 186 138 129 114 88 30 319 356 258 211 258 276 282 303 304 327 305 283 296 276 225 252 271 272 275 5 271 264 274 0 349 318 306 297 273 267 259 248 231 229
171 179 196 258 299 324 314 281 269 269 315 329 340 348 357 11 25 38 55 64 39 28 19 12 13 23 43 58 78 66 338 350 356 355 355 349 351 352 352 2 4 8 21 41 36 32 30 204 158 110 113 51 349 10 305 252 152 265 317 300 303 331 313 338 327 303 317 286 206 217 272 278 351 120 245 264 317 10 339 310 308 302 281 275 269 264 242 229
178 195 240 300 322 316 293 252 248 271 309 329 340 350 8 6 13 29 59 49 39 35 11 8 14 5 47 56 73 44 338 349 357 359 359 352 350 348 349 357 2 11 20 38 31 29 33 25 100 82 292 248 286 6 320 248 351 279 31 342 314 357 2 350 351 325 353 313 236 181 296 306 181 212 248 277 319 339 325 306 305 304 296 290 281 278 262 248
188 212 303 344 336 287 242 232 242 279 318 335 345 10 25 10 12 26 30 15 20 14 357 0 5 352 62 46 6 2 344 348 358 357 356 353 352 359 11 6 9 12 10 27 21 26 35 46 98 100 145 90 332 311 81 13 11 263 37 43 325 2 346 333 359 334 359 320 325 47 313 305 278 259 268 293 322 328 318 308 310 309 306 304 298 295 281 269
181 169 70 347 293 239 221 232 249 300 335 352 24 45 27 12 10 8 30 20 5 358 348 350 356 359 85 22 270 5 357 356 358 353 352 350 354 23 39 22 26 26 14 22 22 28 32 60 90 91 105 76 332 330 34 2 12 326 355 45 27 12 299 324 353 344 5 338 1 48 253 285 294 299 309 326 333 330 315 312 318 316 316 318 315 314 307 299
156 148 81 297 243 216 221 237 270 319 350 15 41 35 14 6 342 325 290 295 356 7 353 327 346 17 81 14 327 1 355 353 354 356 353 347 353 16 7 8 43 37 12 5 29 38 36 61 76 57 322 6 37 46 19 345 10 22 12 343 351 21 296 322 348 30 11 304 0 47 252 282 290 301 322 340 341 341 326 319 327 335 344 348 348 355 346 341
157 156 254 228 218 213 229 253 295 325 354 19 35 43 44 37 359 313 223 254 291 349 357 345 341 45 88 346 332 354 349 340 346 356 355 351 360 2 348 0 27 5 16 49 76 47 41 55 75 61 7 11 36 59 40 14 355 3 39 322 301 333 321 323 338 24 14 311 350 30 252 288 291 304 323 335 342 349 352 341 351 4 11 20 22 25 21 15
160 198 254 216 213 213 234 277 307 321 351 28 76 76 61 47 30 4 230 254 277 311 7 15 347 40 84 351 336 343 330 327 344 356 360 2 15 8 3 20 2 354 48 68 43 27 28 41 84 42 44 35 22 62 56 20 332 329 22 356 286 290 304 316 314 341 13 16 343 346 234 265 282 304 316 325 343 356 9 7 8 17 20 27 33 31 32 27
161 268 258 219 214 216 249 307 334 347 6 56 116 99 44 42 45 53 57 281 274 306 7 3 4 68 26 346 335 314 315 326 351 360 4 12 23 26 30 39 358 2 47 46 24 26 12 17 71 48 29 23 15 46 61 347 281 290 316 323 309 303 276 288 288 324 6 1 327 333 295 280 292 306 310 319 348 3 1 5 8 20 23 22 29 32 29 27
246 300 261 226 224 211 173 47 21 8 23 51 97 261 306 4 50 53 50 48 41 30 19 331 14 105 273 313 311 318 319 331 2 4 6 8 9 36 40 34 26 34 48 28 8 17 15 23 41 35 360 346 350 42 112 253 234 247 274 271 292 305 285 275 270 289 355 343 315 323 300 290 302 307 309 319 337 350 348 11 19 15 21 20 27 26 21 31
285 319 261 242 230 173 112 72 30 8 16 7 336 316 337 9 32 33 34 42 68 92 100 242 357 98 305 302 320 341 343 341 11 11 5 359 350 21 26 21 29 44 54 123 331 359 60 60 33 325 293 298 299 267 240 259 231 240 288 293 282 288 287 289 279 284 352 353 300 313 307 290 290 292 297 315 337 355 356 13 14 3 10 12 24 21 14 23
349 45 181 205 174 144 103 69 34 18 7 349 26 56 102 126 68 74 345 26 36 87 73 221 207 107 313 298 332 352 355 328 5 12 5 360 359 21 2 11 38 37 13 253 276 351 55 65 356 274 258 271 301 304 258 261 148 14 301 295 299 275 275 296 288 285 7 22 280 327 330 302 291 289 296 322 345 344 341 356 348 342 347 348 17 17 359 345
91 143 160 147 149 136 99 67 47 53 66 68 81 86 119 147 101 152 162 73 12 359 42 5 34 9 317 318 350 353 17 357 353 360 3 4 18 33 5 33 58 38 342 3 21 4 42 50 309 286 272 284 350 44 19 311 91 65 341 311 317 305 289 303 297 309 1 44 273 328 334 301 290 283 286 297 301 287 291 292 283 295 312 324 346 351 349 356
91 149 144 136 148 139 102 69 66 87 87 80 86 96 115 105 99 156 116 86 33 354 24 23 43 6 340 16 357 355 42 30 351 344 358 6 18 46 66 49 56 35 0 34 70 56 55 349 312 330 9 358 360 19 25 19 33 45 359 4 320 322 345 316 314 329 333 316 256 301 305 293 304 313 289 275 272 280 297 297 273 259 258 284 306 306 328 359
73 127 135 148 152 148 118 77 79 89 86 87 90 101 122 102 102 135 92 81 39 347 18 11 122 34 349 351 348 351 71 48 2 338 356 12 11 23 76 76 66 39 6 51 83 91 116 281 326 42 31 39 36 360 23 29 356 308 230 342 311 313 312 256 291 323 328 325 289 317 324 305 329 343 300 288 330 310 316 333 311 294 280 288 323 329 327 340
53 120 145 156 160 163 151 98 84 85 79 94 103 106 116 92 61 100 99 69 14 322 343 353 110 18 343 342 348 348 127 28 61 343 355 15 8 8 47 68 79 33 326 66 67 74 21 287 350 29 18 41 58 22 26 36 350 320 258 229 273 302 291 274 300 328 356 349 330 14 12 303 308 323 287 298 342 317 319 339 304 298 314 334 359 351 339 336
39 156 159 166 173 174 167 136 81 64 39 79 132 148 127 86 34 46 105 68 23 320 348 360 18 358 346 346 345 349 72 360 334 12 11 13 1 123 58 352 47 32 253 184 56 79 325 338 48 70 35 33 45 34 345 101 39 344 277 202 251 319 306 303 326 360 20 308 308 53 78 284 313 316 284 302 319 303 311 317 297 296 309 332 349 336 335 342
215 178 171 180 181 174 164 172 290 313 5 341 207 231 230 175 15 19 71 45 12 324 352 337 337 1 349 341 345 47 67 317 315 24 16 8 346 117 69 11 23 11 285 105 37 14 308 345 23 43 32 28 29 360 284 127 62 313 258 28 331 320 299 276 74 88 255 283 321 26 100 253 302 288 284 316 313 307 318 309 300 304 305 324 336 323 327 341
205 186 180 186 186 179 174 18 6 53 353 302 289 254 224 218 310 16 82 68 348 346 29 309 331 359 344 346 10 66 97 313 8 359 349 9 6 35 69 58 130 321 322 101 90 270 289 344 354 13 20 21 3 313 265 139 70 269 267 341 318 294 259 178 128 145 269 9 338 327 25 345 282 280 304 341 333 317 314 298 295 302 308 326 330 323 334 347
195 188 182 184 182 169 122 42 42 33 334 324 21 139 172 159 2 50 75 98 324 343 178 322 349 348 345 357 14 36 3 359 65 316 335 15 12 24 79 126 138 145 332 94 140 253 272 246 215 100 44 352 296 284 223 155 250 282 300 338 352 67 67 100 102 117 40 33 292 284 3 28 291 291 315 352 357 323 307 299 298 297 312 335 331 336 3 12
187 182 176 171 169 165 98 33 31 30 30 71 92 112 133 94 55 61 50 71 337 325 291 22 4 339 3 13 356 358 15 2 329 327 348 14 354 14 84 127 99 103 351 41 86 274 310 332 155 127 39 287 292 299 205 178 258 322 354 341 358 35 39 57 64 89 54 355 263 255 16 68 311 290 279 291 325 333 323 321 327 333 348 360 353 359 22 27
174 170 168 161 157 193 292 6 18 40 73 104 114 97 90 39 57 87 69 284 316 338 5 16 349 6 26 36 349 342 4 333 330 9 10 355 359 13 36 15 35 50 6 9 9 349 358 18 24 279 279 32 348 330 338 228 297 3 19 354 353 354 2 19 357 31 46 311 269 241 242 98 267 272 266 284 335 3 357 341 350 2 11 17 16 20 29 29
145 149 155 148 123 351 348 347 9 68 88 117 113 67 73 34 31 88 293 315 344 350 14 336 318 357 3 16 356 329 333 335 349 45 26 10 33 26 32 31 1 7 10 353 345 351 347 264 306 328 329 32 8 346 344 351 7 15 18 24 20 352 355 2 333 353 359 277 257 201 305 303 239 251 280 330 4 19 16 12 18 24 28 28 26 25 26 24
115 122 124 94 61 39 29 4 56 88 86 115 69 51 78 75 40 274 289 330 6 336 341 269 298 323 337 10 358 324 332 342 345 29 44 69 58 26 20 26 21 25 6 337 353 357 334 308 339 357 343 42 64 32 347 327 357 5 14 48 43 26 3 329 302 328 303 279 268 103 2 298 279 290 355 15 27 35 29 27 28 30 32 27 24 23 20 20
101 106 100 74 58 44 23 340 176 130 274 96 74 50 66 81 153 263 313 284 283 331 335 248 308 324 14 44 337 321 7 337 342 19 13 29 44 18 358 3 16 48 62 25 20 11 355 323 330 4 335 3 54 59 339 251 346 334 194 124 80 105 29 282 258 279 296 296 307 344 69 224 285 14 62 52 47 50 39 29 26 25 25 18 14 14 12 10
101 90 70 48 35 19 8 295 231 219 126 92 71 57 78 114 245 175 282 268 278 322 303 291 358 14 1 332 321 351 16 309 349 35 25 29 46 16 2 350 356 25 63 43 332 7 20 278 267 287 276 9 36 303 147 95 358 293 185 88 25 192 173 221 226 216 261 304 304 300 237 223 252 41 60 52 48 48 38 29 28 22 16 12 7 6 3 358
93 72 49 31 19 6 0 331 245 193 129 87 69 58 98 178 216 163 202 268 274 294 316 340 28 40 342 315 338 357 357 306 354 28 27 39 63 9 10 302 337 18 74 99 303 4 24 282 289 332 326 150 142 242 8 45 320 318 36 341 271 187 145 162 278 284 60 295 279 287 279 288 310 4 24 25 26 26 21 18 20 15 8 8 4 358 353 349
86 70 45 24 12 4 15 49 127 149 121 74 80 92 188 187 176 183 207 334 330 94 58 30 13 26 336 314 328 336 344 343 2 25 14 16 42 15 13 310 330 37 59 154 193 245 153 289 306 352 326 282 198 162 20 23 106 60 355 265 249 82 98 111 282 338 9 271 268 306 289 299 314 310 6 17 13 9 8 5 3 0 1 1 357 353 348 345
78 88 51 19 8 9 41 77 100 108 93 63 76 122 185 169 184 208 177 111 3 32 68 71 12 27 11 346 326 327 350 359 359 17 12 1 11 105 68 320 282 77 343 295 152 257 124 294 299 308 278 291 314 75 8 340 21 52 278 243 74 14 311 15 331 305 316 281 281 300 287 289 279 291 357 12 4 359 357 355 354 353 354 353 349 349 346 343
16 90 44 6 4 25 54 91 101 71 66 72 81 138 171 105 283 235 167 84 70 60 55 37 9 29 43 54 332 324 360 13 348 5 38 24 354 109 110 293 283 37 348 12 129 250 104 4 292 283 287 306 351 37 346 318 333 6 359 328 30 181 213 253 284 232 266 275 279 306 303 293 198 312 355 359 355 356 349 347 350 347 346 346 344 345 343 338
21 83 14 353 0 40 68 72 72 46 59 105 158 137 74 22 313 342 7 21 54 70 45 43 38 19 351 4 3 301 5 27 341 358 27 22 330 344 90 148 284 331 339 49 88 300 2 83 262 289 322 347 350 330 284 273 305 345 360 335 319 288 247 282 268 159 185 267 271 298 294 262 201 334 19 7 357 357 348 342 341 339 339 340 338 338 334 329
44 85 326 347 355 258 74 59 54 41 75 84 103 89 47 69 56 7 10 34 57 105 111 125 107 60 242 357 5 223 314 341 334 327 292 326 359 336 342 142 184 320 349 40 43 5 354 116 239 300 341 348 287 256 202 201 200 187 259 276 258 270 324 309 289 300 165 231 248 282 282 261 208 213 157 23 360 352 348 342 335 333 332 331 330 327 322 321
54 87 318 346 15 99 81 55 23 46 86 58 47 83 34 63 65 2 1 37 56 80 69 103 113 124 165 212 272 231 306 320 295 345 243 248 228 228 316 64 123 16 43 37 346 319 32 101 336 282 273 275 281 283 119 202 173 149 196 206 181 225 63 259 274 299 308 276 271 290 280 259 218 220 197 22 354 344 342 338 332 328 325 324 324 321 319 322
70 124 349 355 20 109 73 58 338 27 64 349 37 61 11 63 72 356 6 25 26 30 27 50 183 30 145 213 247 248 329 235 228 278 251 249 253 218 145 87 133 31 54 36 338 329 21 78 6 296 279 282 292 317 60 131 120 88 306 17 46 1 355 270 256 303 302 286 313 322 282 265 221 219 220 358 350 344 341 339 337 332 329 330 328 325 326 330
106 161 7 16 31 134 80 89 129 60 68 70 49 20 352 55 72 17 13 4 359 91 64 11 277 359 355 193 119 268 324 354 228 287 350 215 249 22 91 221 280 30 52 34 356 340 330 41 23 348 338 329 331 346 342 318 341 321 318 36 28 0 350 312 288 23 312 290 330 316 280 285 280 267 344 356 351 345 341 339 337 334 333 332 326 324 329 330
69 83 331 20 40 64 94 141 137 118 126 88 60 18 359 43 54 5 103 28 335 166 112 353 340 23 352 17 27 328 337 17 264 320 13 255 260 356 46 333 334 55 46 5 1 331 266 216 108 75 352 324 325 321 311 316 322 313 13 40 21 9 9 352 328 2 314 312 330 304 278 297 318 334 356 356 345 336 334 333 331 330 326 321 320 325 329 326
69 52 321 3 30 52 73 104 98 106 132 110 69 17 28 59 310 267 145 97 328 128 48 1 356 19 18 38 26 321 310 2 328 340 349 272 275 317 6 343 18 68 27 13 21 57 99 225 203 157 193 262 266 271 286 309 307 309 353 18 10 12 21 26 32 346 308 303 300 290 296 304 312 334 351 346 336 331 329 327 324 323 320 319 322 325 322 316
96 78 65 359 8 31 38 22 40 77 126 122 99 34 22 14 314 307 107 105 297 73 56 32 41 41 12 25 31 311 300 338 353 332 295 270 275 291 323 22 44 13 4 20 14 79 82 313 258 181 214 248 257 270 287 306 307 318 2 10 360 1 13 29 28 325 307 298 287 304 307 301 305 333 342 336 331 327 322 318 318 318 316 316 317 316 313 307
76 127 183 123 72 57 44 29 54 69 60 76 103 89 27 20 19 10 317 334 1 16 101 33 16 28 303 319 30 338 327 346 341 308 328 338 319 330 353 25 25 342 348 7 354 98 110 273 247 182 244 262 267 273 282 295 322 52 35 8 353 356 5 8 348 320 321 309 297 303 299 293 305 333 335 330 325 317 312 312 313 313 310 311 313 312 310 304
83 110 323 27 90 136 104 37 76 70 50 52 73 61 61 61 45 313 269 353 357 342 52 48 325 327 303 237 117 47 316 340 320 299 303 358 332 347 354 337 307 330 10 31 349 110 129 264 238 181 283 283 280 272 267 259 145 74 36 7 356 353 349 344 328 328 333 313 297 296 291 291 315 336 326 321 315 309 310 314 316 314 314 315 315 312 308 305
133 137 132 63 71 80 39 26 61 67 41 42 65 52 77 96 36 275 223 91 7 332 27 47 296 307 306 182 153 231 234 195 239 260 201 21 323 259 233 267 269 334 6 46 333 341 24 299 246 85 325 300 294 288 302 307 133 96 34 13 7 355 345 342 335 333 330 313 303 299 292 294 322 326 315 312 313 315 319 320 319 316 315 316 315 311 307 309
97 117 130 110 65 7 15 20 59 79 35 11 78 145 175 176 195 202 220 189 174 229 302 272 286 305 352 174 220 254 243 203 221 240 210 208 262 219 195 218 182 345 354 15 337 359 21 315 336 43 349 308 313 330 331 348 115 99 33 17 7 354 343 334 327 325 322 314 312 308 299 305 318 315 313 316 322 323 319 317 316 314 315 315 311 308 309 316
95 90 104 103 76 360 11 15 37 78 63 331 173 175 240 227 216 168 99 237 236 234 215 200 227 301 346 325 301 274 250 221 228 248 220 193 228 219 237 229 137 64 326 340 340 4 70 26 335 11 337 304 315 328 326 333 75 33 19 25 5 349 336 323 317 320 318 315 316 312 305 315 321 324 325 325 325 322 317 315 316 315 315 311 306 308 316 319
Height
806 807 807 807 807 807 807 807 808 807 807 807 807 806 806 806 805 805 804 803 802 801 800 798 797 797 797 797 798 797 797 796 796 794 795 797 797 795 794 792 791 790 789 788 787 786 785 785 785 785 784 785 789 790 790 791 793 794 801 808 808 810 808 800 798 798 797 792 790 793 795 794 789 788 788 787 787 785 786 784 782 780 776 775 774 773 773 773
807 807 807 807 807 808 807 808 808 807 807 807 807 806 806 806 805 805 804 803 802 801 800 799 798 798 798 798 798 798 797 797 796 796 797 797 796 795 794 792 791 790 790 789 788 788 788 788 788 787 787 788 791 791 791 793 794 797 806 810 806 805 801 797 795 795 795 792 791 792 795 795 790 788 789 787 785 787 786 782 781 780 775 773 772 773 773 773
807 807 807 807 807 808 808 808 808 808 808 807 807 807 807 806 805 805 804 804 802 802 801 800 800 799 799 799 798 798 797 797 797 798 798 797 796 795 793 792 791 791 790 789 789 789 789 790 789 789 790 790 794 793 792 795 796 799 806 806 801 800 799 797 795 794 793 793 793 792 794 796 791 790 790 788 785 786 785 779 779 778 773 770 769 771 773 773
806 806 807 807 807 808 808 808 808 808 808 808 807 807 807 806 806 805 804 804 803 802 801 801 801 800 800 799 799 798 797 798 800 800 799 797 796 795 793 792 792 791 790 790 789 789 789 790 789 790 790 792 795 796 796 797 798 801 803 799 797 801 799 793 793 794 795 797 796 793 796 794 791 792 789 788 788 783 778 773 773 772 768 767 767 770 772 772
806 807 807 807 808 808 808 808 808 808 808 808 808 807 807 806 806 805 804 804 803 803 802 802 801 801 801 799 799 798 797 803 803 800 799 798 796 795 793 792 792 791 790 790 789 789 789 789 789 790 793 794 796 796 797 799 799 799 799 797 798 802 797 791 795 796 797 799 797 796 795 792 790 790 787 788 789 778 767 766 768 767 765 765 766 768 770 771
807 807 807 808 808 809 809 809 808 808 808 808 808 808 807 806 806 805 804 804 803 803 803 803 802 801 800 799 800 797 800 806 804 800 799 798 796 795 793 792 792 791 790 790 790 789 789 790 789 792 795 796 798 797 798 801 801 798 797 800 801 802 798 794 796 796 797 797 795 794 793 792 790 786 786 786 782 769 760 762 766 765 765 765 765 767 767 768
807 808 808 808 809 809 809 809 809 809 808 808 808 808 807 806 806 805 804 804 804 804 803 803 802 801 800 799 799 799 802 805 802 800 799 798 796 795 793 793 792 791 791 790 789 790 790 791 791 795 796 797 800 799 801 802 802 801 799 800 801 802 799 795 797 796 797 795 792 794 793 791 788 786 788 782 772 765 761 763 766 765 764 765 766 765 764 764
808 809 809 809 809 809 809 809 809 809 809 808 808 807 807 806 805 805 804 804 804 804 803 803 802 801 800 799 799 802 804 803 802 801 799 798 797 796 794 793 792 791 791 790 791 791 791 792 794 797 797 799 801 800 803 801 800 802 800 800 800 800 797 796 797 795 795 794 793 794 791 787 787 789 788 776 765 763 764 764 764 764 764 765 764 763 762 762
809 809 809 810 810 810 809 809 809 809 809 808 808 808 807 806 805 805 804 805 804 804 804 803 802 801 800 799 800 804 806 803 802 801 799 798 797 796 795 794 793 792 792 791 792 791 792 794 796 797 797 800 802 801 803 800 800 803 801 801 800 798 798 798 796 794 794 794 793 792 788 785 787 789 782 768 763 763 764 764 763 763 762 761 761 760 760 760
810 810 810 810 810 810 810 809 809 809 809 808 808 808 807 806 806 805 805 805 804 804 804 803 803 802 800 799 801 806 806 802 802 801 800 798 797 797 795 794 794 793 793 793 793 792 793 794 795 796 796 800 802 803 805 802 802 805 803 802 800 800 800 799 794 793 795 793 792 790 786 783 786 790 779 762 763 766 765 763 762 762 760 758 757 757 758 758
810 810 810 810 810 810 809 809 809 809 809 809 808 808 807 807 806 806 805 805 805 804 804 803 803 802 801 801 804 808 805 802 803 801 800 799 797 796 795 795 794 794 794 794 793 793 793 793 795 795 796 800 801 804 805 804 804 805 803 799 798 800 798 798 794 793 796 791 790 791 784 782 788 789 775 763 765 768 766 763 761 760 759 757 756 755 755 755
811 810 810 810 810 810 809 810 809 809 809 809 808 808 807 807 806 806 805 805 805 804 804 803 803 802 802 803 805 806 804 803 802 801 800 798 796 796 795 795 795 795 794 794 794 794 794 793 793 795 799 801 801 803 803 805 806 803 804 799 796 797 794 796 797 796 797 791 791 794 783 777 783 780 767 765 768 768 767 763 760 759 757 756 755 754 754 753
811 811 811 810 810 810 810 810 809 809 809 809 808 808 807 807 806 806 806 805 805 805 804 804 803 802 803 805 806 805 804 803 802 801 800 797 796 795 795 796 795 794 794 794 795 795 794 794 794 796 800 800 801 803 803 806 804 802 807 804 800 798 792 795 800 798 797 794 792 794 789 777 774 772 768 771 771 768 766 763 761 759 757 756 755 754 753 752
811 811 811 810 810 810 810 810 810 810 809 809 808 808 808 807 807 806 806 806 805 805 804 804 804 802 804 806 805 804 804 803 802 801 799 797 795 794 795 795 794 794 794 795 795 795 795 794 794 796 800 803 804 804 804 807 804 804 807 808 815 809 793 795 804 800 795 796 792 794 797 785 773 769 769 773 772 772 769 764 764 761 759 757 754 754 752 752
810 811 810 810 810 810 810 810 810 810 809 809 809 808 808 807 807 806 806 806 806 806 805 804 804 803 805 806 804 804 804 802 802 801 799 797 795 794 794 793 794 794 794 794 794 795 795 794 796 800 803 804 805 806 807 807 808 813 809 806 820 818 803 802 806 806 801 798 795 796 799 790 779 772 769 773 773 773 771 766 765 762 760 757 755 754 752 751
810 811 810 810 810 810 810 810 810 810 809 809 809 809 808 807 807 806 807 806 806 806 804 804 804 803 807 808 805 804 804 803 802 801 800 798 795 795 794 793 794 794 794 794 794 796 795 796 803 808 808 807 812 814 807 807 812 819 818 812 815 816 814 809 803 808 808 802 799 798 800 792 782 775 772 775 774 772 770 767 766 763 761 759 757 755 754 752
811 811 811 811 810 811 811 810 810 810 810 809 809 809 808 807 807 806 806 806 806 806 805 805 804 803 808 808 807 807 806 805 802 801 799 797 796 795 794 794 794 794 794 794 794 796 796 800 808 811 814 817 823 819 807 812 818 820 824 822 820 820 822 815 805 808 809 805 804 802 802 795 785 782 779 777 775 773 770 767 767 765 763 761 759 757 756 754
811 811 811 811 811 811 811 811 811 810 810 810 810 809 809 809 808 807 807 806 806 805 805 806 804 809 814 810 811 812 807 805 803 801 798 797 797 796 796 795 796 795 795 797 797 799 800 805 810 810 816 821 826 824 816 822 827 824 827 827 826 826 825 819 811 811 811 806 805 803 800 793 788 786 781 776 776 774 771 770 768 766 765 763 761 760 758 756
811 812 811 811 811 811 812 811 811 811 810 810 810 809 809 809 808 808 807 807 808 811 815 815 813 820 823 815 814 812 807 806 804 801 799 798 797 797 797 798 799 798 799 803 803 807 809 809 812 814 821 825 830 835 830 829 830 829 833 833 831 829 825 820 814 817 819 809 802 802 800 796 790 784 779 776 777 776 773 771 769 768 767 765 763 762 760 758
812 812 812 812 812 812 812 812 812 811 811 810 810 809 810 811 813 814 814 813 817 821 823 823 820 822 821 817 815 811 808 807 805 804 801 799 799 798 799 800 802 802 808 812 810 815 817 815 822 829 831 832 835 840 838 836 836 835 835 834 833 834 826 817 815 819 821 811 803 804 804 798 789 782 780 779 777 776 773 771 771 770 769 767 765 763 761 760
812 812 812 812 812 813 813 812 812 811 811 811 809 810 813 815 817 819 820 820 823 823 822 822 822 821 819 818 816 813 812 809 806 806 804 802 800 800 804 806 804 808 818 823 819 818 818 821 831 835 835 838 841 844 840 837 838 835 834 831 828 832 825 814 817 821 821 816 807 807 803 789 783 782 780 780 778 776 776 774 773 771 770 768 766 764 763 762
812 812 812 812 813 813 813 813 813 812 812 811 810 812 815 816 817 818 819 821 823 822 822 821 821 820 819 819 818 817 816 812 807 806 806 804 801 804 811 813 812 817 822 822 819 819 822 828 834 836 840 841 842 843 838 835 836 835 835 830 824 826 823 814 814 818 821 819 806 805 803 786 782 785 781 780 779 777 778 777 775 773 771 768 766 766 765 763
812 812 813 813 813 813 814 814 813 813 813 812 812 814 816 817 817 817 816 820 823 822 822 822 822 822 820 819 819 818 817 819 817 814 811 808 809 812 816 817 819 823 824 821 820 824 828 830 835 842 841 835 833 835 836 833 832 834 832 827 823 827 827 817 812 816 822 822 813 808 804 792 786 784 777 777 779 777 777 776 774 774 772 769 769 768 768 765
812 813 813 813 814 814 814 814 814 814 814 814 815 815 817 817 817 817 818 823 825 823 823 824 824 824 823 822 821 820 820 824 825 821 817 815 816 818 819 823 823 825 831 832 827 828 831 834 839 842 837 832 830 831 836 832 826 831 829 825 825 828 833 828 823 825 821 820 820 808 794 786 785 783 774 775 778 775 775 774 771 771 772 771 770 769 769 767
813 813 813 814 814 814 815 815 815 815 815 816 816 816 817 817 817 816 818 826 829 825 824 824 825 825 824 824 822 822 823 823 826 824 821 820 820 820 823 828 826 826 835 838 831 828 832 839 839 834 833 834 831 830 837 836 828 825 824 826 827 829 835 836 835 828 808 803 814 810 793 782 782 783 777 775 777 773 772 773 769 768 770 769 769 769 769 769
813 813 814 814 814 815 815 815 815 816 816 816 817 817 817 817 817 816 819 830 836 832 828 825 826 827 824 825 825 824 825 824 826 826 823 822 823 822 824 830 831 831 836 837 833 830 832 839 840 834 833 833 830 832 837 840 833 822 822 828 832 834 835 836 836 823 803 802 815 817 806 795 786 780 780 782 780 773 771 771 768 768 769 768 770 771 770 771
812 813 814 814 815 815 816 816 816 817 817 817 817 817 817 817 817 816 821 838 844 838 834 830 829 829 827 830 828 826 831 832 826 825 825 824 824 823 824 831 833 834 842 839 830 831 832 831 834 835 833 829 829 831 835 840 833 819 822 831 832 833 831 835 834 822 817 817 815 817 814 807 796 780 783 790 782 773 770 769 767 767 767 769 771 773 773 772
812 813 814 814 816 816 817 817 817 818 817 818 817 816 817 817 817 817 826 847 852 839 837 836 830 831 832 833 832 831 838 838 831 828 827 826 825 823 825 833 834 835 843 837 824 832 836 830 832 835 833 831 829 832 836 840 831 818 824 833 835 834 832 837 832 823 834 825 804 810 814 809 802 785 786 790 779 773 772 769 770 768 769 772 773 774 775 775
812 814 814 815 816 817 817 817 817 818 817 817 816 816 817 815 817 820 831 850 852 839 840 838 831 837 841 836 836 839 840 839 839 835 829 828 827 825 829 835 835 834 837 833 825 832 837 836 841 839 834 833 829 832 838 837 830 825 830 833 835 841 839 839 834 824 830 819 800 810 814 811 807 789 784 786 776 777 778 775 777 775 776 779 778 780 781 783
813 814 815 816 817 817 818 817 818 818 817 817 816 816 816 817 821 830 843 854 851 845 845 842 842 851 851 841 839 845 843 842 846 840 833 835 831 829 835 837 836 834 836 835 829 833 840 843 846 842 837 837 835 837 841 839 835 830 830 823 820 833 837 836 840 831 818 808 805 815 816 817 815 794 783 785 782 788 792 788 786 785 787 792 793 795 794 795
813 815 816 817 817 818 818 818 818 817 817 817 817 816 817 823 831 841 854 856 851 851 850 850 857 859 857 855 851 850 847 845 848 844 839 842 840 837 837 840 841 833 830 834 829 831 839 838 839 841 841 843 838 834 838 844 844 834 828 822 814 820 824 820 824 822 813 807 811 820 820 820 819 796 779 783 792 804 808 804 803 803 804 806 806 805 803 803
814 815 817 817 818 817 817 818 818 817 817 817 817 818 820 829 843 855 861 855 853 861 862 862 865 861 862 865 859 857 854 849 849 851 852 852 854 857 856 860 859 840 833 842 840 834 832 831 838 841 843 846 837 830 833 836 837 832 829 830 824 824 826 821 817 820 819 812 812 821 822 818 812 794 783 793 806 815 820 819 818 818 814 811 810 809 807 806
815 817 817 818 818 818 818 818 817 817 817 817 818 821 825 834 853 869 869 858 862 872 872 870 868 867 867 859 855 861 859 853 852 854 858 858 859 865 868 873 873 856 847 852 853 845 833 830 835 836 838 843 839 835 836 833 833 836 837 837 833 836 843 840 834 834 828 815 814 824 826 815 802 795 802 815 819 820 823 824 822 820 817 814 813 811 808 806
817 817 818 818 818 818 818 817 817 818 817 818 820 823 829 843 863 874 870 867 874 876 874 875 870 865 863 858 860 865 857 853 857 855 856 857 857 862 866 871 873 868 861 857 861 862 849 839 835 833 837 840 839 841 844 842 841 845 850 845 837 840 849 849 838 832 828 824 825 825 819 809 797 800 818 826 822 823 824 825 823 819 817 816 813 811 808 807
818 818 818 818 818 818 817 817 817 817 817 818 823 831 840 856 872 873 870 875 879 874 873 878 871 858 856 859 865 869 861 855 859 859 857 861 866 868 872 875 876 876 867 859 866 869 860 848 838 840 846 842 839 844 848 844 840 848 855 845 838 841 846 846 840 839 843 844 838 824 811 805 799 805 822 826 822 825 825 825 823 820 819 817 815 813 811 810
818 818 818 818 819 818 816 817 816 817 818 817 826 847 862 871 875 875 876 879 880 878 873 870 867 857 854 858 860 865 866 861 860 859 859 868 874 874 878 881 882 882 873 867 871 871 861 847 837 841 845 843 845 847 848 844 837 844 849 838 843 854 849 845 846 851 857 851 839 825 812 809 804 805 819 825 822 824 824 824 823 822 822 820 818 816 814 811
818 818 819 820 820 818 817 817 815 816 819 820 833 862 879 881 880 880 883 882 884 888 876 861 863 865 863 862 859 863 867 862 863 862 860 868 872 873 879 881 883 885 882 878 875 875 874 857 843 845 839 839 854 852 847 852 846 840 841 840 849 854 849 852 853 849 850 846 834 822 813 812 809 810 825 832 829 829 828 826 825 824 822 820 819 817 814 812
819 819 819 821 821 820 818 817 818 817 819 831 854 875 881 880 883 885 886 887 888 886 873 864 869 873 874 872 868 873 872 863 864 867 865 867 869 873 879 878 880 885 888 884 873 876 883 863 845 852 847 841 852 849 840 849 853 846 844 846 849 847 845 853 854 847 849 850 837 820 810 815 822 829 841 844 839 838 835 830 829 825 822 821 818 815 813 810
819 819 822 825 824 822 821 819 821 819 821 843 868 876 877 879 885 888 889 889 889 883 874 875 880 877 879 881 877 880 880 873 872 871 867 868 869 874 880 881 879 882 887 885 876 877 883 868 849 851 852 844 841 840 836 841 848 849 849 847 848 849 847 849 852 849 850 849 843 829 815 819 838 849 851 849 844 842 839 834 831 828 825 823 819 817 814 810
819 821 825 827 823 824 824 818 821 828 838 861 876 875 878 882 884 890 893 890 889 884 879 883 885 879 879 884 884 886 885 880 879 873 870 873 871 871 883 887 881 881 885 884 881 880 879 873 858 847 849 846 838 839 841 841 844 844 844 844 845 847 847 850 853 851 849 845 844 843 827 823 844 851 847 848 845 842 840 836 833 830 826 824 821 819 816 811
820 824 828 827 824 825 822 821 839 855 861 872 879 878 883 884 882 889 895 893 890 887 885 885 885 883 883 883 884 888 885 880 880 876 873 875 870 868 882 891 887 885 883 877 880 883 878 877 872 859 853 845 836 841 846 845 847 845 843 843 846 848 849 853 854 849 851 847 842 845 833 826 843 848 844 847 844 841 841 837 833 831 827 825 822 819 815 810
823 830 832 827 825 823 822 837 865 876 871 875 880 882 885 885 885 887 890 892 889 886 886 885 885 887 887 884 884 887 884 878 876 874 874 876 872 871 884 895 895 892 886 878 883 889 884 885 882 867 857 848 841 849 856 854 852 849 849 850 852 854 854 857 856 849 852 849 844 847 838 832 846 847 840 843 842 840 840 836 834 831 826 824 819 815 812 807
829 834 832 829 827 824 826 847 872 878 878 884 887 888 889 886 885 885 887 888 886 883 882 883 885 886 885 887 886 884 882 878 874 873 874 876 876 880 891 899 897 893 888 881 884 889 886 885 878 860 853 849 842 847 857 857 852 847 851 858 859 861 862 863 861 861 860 851 849 855 841 831 844 845 838 839 838 836 834 831 830 825 820 818 814 811 807 802
835 835 834 830 825 823 830 850 867 875 882 884 882 885 889 888 887 886 886 887 887 885 881 882 886 884 885 891 888 883 881 876 873 876 878 876 880 890 898 900 896 892 888 885 888 889 881 878 875 864 859 855 846 846 848 847 848 845 850 865 870 872 875 872 869 875 870 855 856 865 847 828 833 838 835 836 834 832 830 826 824 821 817 815 811 808 804 800
834 835 838 835 829 831 846 861 865 870 878 878 878 885 886 886 891 890 888 889 892 892 885 883 888 888 889 892 888 885 885 878 873 879 883 879 881 893 900 899 898 896 896 898 900 893 883 881 878 870 870 873 868 863 854 849 852 848 854 875 884 882 885 880 878 883 877 865 867 869 852 833 831 833 835 838 838 835 831 826 824 821 817 813 809 805 802 799
834 839 844 844 842 847 863 874 870 867 873 873 876 886 886 883 889 893 891 889 891 893 889 888 891 889 888 888 884 881 883 885 884 881 880 877 877 890 901 900 899 900 900 903 902 896 891 889 883 872 869 871 869 863 856 858 862 858 866 885 890 888 890 888 890 892 886 879 873 861 850 842 837 837 841 843 840 836 831 827 824 820 815 811 807 804 801 797
838 849 856 852 851 857 864 874 874 871 874 875 877 886 888 885 887 889 888 889 891 892 890 891 893 889 886 887 884 879 879 885 888 882 880 883 883 890 900 901 899 900 901 902 901 897 888 881 883 882 871 864 864 863 861 865 872 876 885 893 891 891 892 892 897 895 887 883 872 855 850 847 841 842 845 844 840 836 832 828 824 819 814 810 807 804 800 796
843 856 866 859 857 864 867 872 877 877 878 881 886 891 888 887 889 887 887 889 890 891 887 886 890 893 895 895 887 881 880 878 877 877 881 889 890 887 889 895 899 901 901 898 898 899 887 876 886 891 878 871 873 871 869 873 881 890 897 895 892 893 892 892 895 891 885 884 874 857 851 847 843 845 846 843 840 836 830 827 822 818 813 810 807 803 798 793
849 856 866 864 865 875 880 881 881 876 878 883 887 891 890 888 891 895 897 891 885 889 888 881 885 893 899 901 893 885 885 880 876 879 884 889 891 886 882 885 893 900 898 892 896 901 888 877 891 899 886 877 874 871 871 873 881 895 901 896 894 893 890 891 890 885 883 881 871 858 850 846 845 848 846 841 837 832 828 824 821 816 811 808 804 799 794 790
846 849 859 863 869 881 886 886 880 873 879 886 885 891 896 891 890 896 900 893 882 886 891 885 887 894 898 901 895 886 886 886 882 884 890 891 892 891 886 885 890 895 894 891 896 899 885 878 892 899 886 870 862 863 867 868 879 898 902 895 893 891 888 888 887 883 882 877 867 858 853 849 848 848 845 839 834 830 826 822 818 814 809 804 800 795 790 786
843 846 850 853 869 885 884 885 885 875 878 887 887 891 894 890 892 895 895 896 892 888 892 891 891 897 900 899 893 885 887 890 887 887 891 892 892 892 890 892 896 895 892 895 898 896 890 885 890 894 885 868 856 857 864 871 882 897 902 898 896 893 890 888 885 882 881 875 865 860 859 855 849 845 841 836 832 829 825 820 816 811 807 802 797 792 788 785
844 848 849 849 867 888 887 886 887 879 882 893 894 895 893 891 899 899 889 893 899 895 895 898 896 896 892 887 885 886 889 892 891 892 895 896 898 900 897 899 902 898 896 900 902 903 902 893 890 895 888 869 858 860 866 869 870 881 898 903 898 895 893 887 883 880 877 871 867 865 863 855 846 842 838 833 830 827 821 816 814 810 806 800 794 790 787 783